Change the Weather History Date:

Thursday, September 12, 2013

  Actual Average Record
Temperature  
Mean Temperature 83 °F 78 °F  
Max Temperature 99 °F 90 °F 100 °F (1980)
Min Temperature 67 °F 66 °F 51 °F (1976)
Degree Days  
Heating Degree Days 0 0  
Month to date heating degree days 0 0  
Since 1 July heating degree days 0 0  
Cooling Degree Days 18 13  
Month to date cooling degree days 228 176  
Year to date cooling degree days 2073 2183  
Growing Degree Days 33 (Base 50)    
Moisture  
Dew Point 66 °F    
Average Humidity 62    
Maximum Humidity 93    
Minimum Humidity 30    
Precipitation  
Precipitation 0.00 in 0.13 in 3.49 in (1998)
Month to date precipitation 0.10 1.47  
Year to date precipitation 32.38 36.95  
Snow  
Snow 0.00 in - - ()
Month to date snowfall 0.0  
Since 1 July snowfall 0.0  
Since 1 September snowfall 0.0  
Snow Depth 0.00 in    
Sea Level Pressure  
Sea Level Pressure 30.00 in    
Wind  
Wind Speed 2 mph (NE)    
Max Wind Speed 12 mph    
Max Gust Speed 15 mph    
Visibility 9 miles    
Events      
T = Trace of Precipitation, MM = Missing Value Source: NWS Daily Summary

Daily Weather History Graph

Daily Weather History Graph

Search for Another Location

Airport or City:

Trip Planner

Search our weather history database for the weather conditions in past years. The results will help you decide how hot, cold, wet, or windy it might be!

Date:

Astronomy

Sep. 12, 2013 Rise Set
Actual Time 6:50 AM CDT 7:17 PM CDT
Civil Twilight 6:25 AM CDT 7:42 PM CDT
Nautical Twilight 5:56 AM CDT 8:11 PM CDT
Astronomical Twilight 5:27 AM CDT 8:40 PM CDT
Moon 1:56 PM CDT (9/12) No Moon Set
Length of Visible Light 13h 17m
Length of Day
12h 27m
Waxing Crescent, 50% of the Moon is Illuminated
Sep 12
Waxing Crescent
Sep 12
First Quarter
Sep 19
Full
Sep 26
Last Quarter
Oct 4
New

Hourly Weather History & Observations

Time (CDT) Temp. Heat Index Dew Point Humidity Pressure Visibility Wind Dir Wind Speed Gust Speed Precip Events Conditions
12:53 AM 73.0 °F - 68.0 °F 84% 30.05 in 10.0 mi Calm Calm - N/A   Clear
1:53 AM 72.0 °F - 66.9 °F 84% 30.05 in 9.0 mi Calm Calm - N/A   Clear
2:53 AM 71.1 °F - 68.0 °F 90% 30.04 in 8.0 mi Calm Calm - N/A   Clear
3:53 AM 70.0 °F - 66.0 °F 87% 30.04 in 8.0 mi Calm Calm - N/A   Clear
4:53 AM 69.1 °F - 66.9 °F 93% 30.05 in 7.0 mi Calm Calm - N/A   Clear
5:53 AM 68.0 °F - 64.9 °F 90% 30.06 in 6.0 mi Calm Calm - N/A   Clear
6:53 AM 68.0 °F - 66.0 °F 93% 30.06 in 4.0 mi Calm Calm - N/A   Clear
7:53 AM 72.0 °F - 68.0 °F 87% 30.07 in 6.0 mi Calm Calm - N/A   Clear
8:53 AM 80.1 °F 82.9 °F 69.1 °F 69% 30.07 in 8.0 mi Calm Calm - N/A   Clear
9:53 AM 86.0 °F 90.1 °F 69.1 °F 57% 30.08 in 6.0 mi WNW 3.5 mph - N/A   Haze
10:53 AM 89.1 °F 92.1 °F 66.9 °F 48% 30.07 in 10.0 mi Calm Calm - N/A   Haze
11:53 AM 91.9 °F 94.1 °F 64.9 °F 41% 30.05 in 10.0 mi Calm Calm - N/A   Haze
12:53 PM 95.0 °F 97.4 °F 64.9 °F 37% 30.03 in 10.0 mi East 3.5 mph - N/A   Mostly Cloudy
1:53 PM 96.1 °F 96.9 °F 62.1 °F 32% 30.00 in 10.0 mi NNW 6.9 mph - N/A   Clear
2:53 PM 98.1 °F 99.6 °F 63.0 °F 31% 29.96 in 10.0 mi NNE 6.9 mph - N/A   Partly Cloudy
3:53 PM 97.0 °F 97.8 °F 62.1 °F 31% 29.94 in 10.0 mi Variable 3.5 mph - N/A   Scattered Clouds
4:53 PM 96.1 °F 96.9 °F 62.1 °F 32% 29.91 in 10.0 mi SE 3.5 mph - N/A   Clear
5:53 PM 96.1 °F 96.4 °F 61.0 °F 31% 29.91 in 10.0 mi Calm Calm - N/A   Clear
6:53 PM 90.0 °F 92.8 °F 66.9 °F 46% 29.91 in 10.0 mi Calm Calm - N/A   Clear
7:53 PM 82.0 °F 85.5 °F 69.1 °F 65% 29.93 in 10.0 mi Calm Calm - N/A   Partly Cloudy
8:53 PM 81.0 °F 83.0 °F 66.0 °F 60% 29.95 in 10.0 mi North 8.1 mph - N/A   Mostly Cloudy
9:53 PM 81.0 °F 83.8 °F 68.0 °F 65% 29.95 in 10.0 mi ESE 3.5 mph - N/A   Mostly Cloudy
10:53 PM 78.1 °F - 69.1 °F 74% 29.94 in 10.0 mi Calm Calm - N/A   Clear
11:53 PM 78.1 °F - 66.9 °F 68% 29.94 in 10.0 mi Calm Calm - N/A   Clear